Weslaco, TX

6:02 AM CDT on July 24, 2017 (GMT -0500)
Weslaco

Weather History for KT65 - July, 2013

Change the Weather History Date:

Monday, July 1, 2013

  Actual Average (KMFE) Record (KMFE)
Temperature  
Mean Temperature 86 °F -  
Max Temperature 99 °F 94 °F 104 °F (1980)
Min Temperature 72 °F 74 °F 70 °F (2012)
Cooling Degree Days 20    
Growing Degree Days 36 (Base 50)    
Moisture  
Dew Point 67 °F    
Average Humidity 58    
Maximum Humidity 84    
Minimum Humidity 26    
Precipitation  
Precipitation 0.00 in - - ()
Sea Level Pressure  
Sea Level Pressure 29.89 in    
Wind  
Wind Speed 3 mph (East)    
Max Wind Speed 20 mph    
Max Gust Speed 29 mph    
Visibility 10 miles    
Events Rain , Thunderstorm    
Averages and records for this station are not official NWS values.
T = Trace of Precipitation, MM = Missing Value Source: NWS Daily Summary

Daily Weather History Graph

Daily Weather History Graph

Search for Another Location

Airport or City:

Trip Planner

Search our weather history database for the weather conditions in past years. The results will help you decide how hot, cold, wet, or windy it might be!

Date:

Astronomy

Jul. 01, 2013 Rise Set
Actual Time 6:43 AM CDT 8:28 PM CDT
Civil Twilight 6:17 AM CDT 8:54 PM CDT
Nautical Twilight 5:45 AM CDT 9:25 PM CDT
Astronomical Twilight 5:12 AM CDT 9:58 PM CDT
Moon 1:52 AM CDT (7/1) 3:02 PM CDT (7/1)
Length of Visible Light 14h 37m
Length of Day
13h 44m
Waning Crescent, 35% of the Moon is Illuminated
Jul 1
Waning Crescent
Jul 8
New
Jul 15
First Quarter
Jul 22
Full
Jul 29
Last Quarter

Hourly Weather History & Observations

Time (CDT) Temp. Heat Index Dew Point Humidity Pressure Visibility Wind Dir Wind Speed Gust Speed Precip Events Conditions
12:15 AM 80.8 °F 83.5 °F 68.2 °F 65% 29.88 in 10.0 mi Calm Calm - N/A   Clear
12:35 AM 80.6 °F 83.4 °F 68.2 °F 66% 29.88 in 10.0 mi SE 3.5 mph - N/A   Clear
12:55 AM 80.1 °F 82.7 °F 68.2 °F 67% 29.88 in 10.0 mi South 3.5 mph - N/A   Clear
1:15 AM 79.7 °F - 68.4 °F 68% 29.87 in 10.0 mi South 3.5 mph - N/A   Clear
1:35 AM 79.9 °F - 68.5 °F 68% 29.87 in 10.0 mi SSW 3.5 mph - N/A   Clear
1:55 AM 80.2 °F 83.0 °F 68.5 °F 67% 29.87 in 10.0 mi Calm Calm - N/A   Clear
2:15 AM 79.7 °F - 68.5 °F 69% 29.87 in 10.0 mi Calm Calm - N/A   Clear
2:35 AM 79.9 °F - 68.5 °F 68% 29.86 in 10.0 mi Calm Calm - N/A   Clear
2:55 AM 79.7 °F - 68.7 °F 69% 29.86 in 10.0 mi South 3.5 mph - N/A   Clear
3:15 AM 79.7 °F - 68.9 °F 69% 29.86 in 10.0 mi Calm Calm - N/A   Clear
3:35 AM 79.0 °F - 68.5 °F 70% 29.86 in 10.0 mi Calm Calm - N/A   Clear
3:55 AM 78.3 °F - 68.5 °F 72% 29.85 in 10.0 mi South 3.5 mph - N/A   Clear
4:15 AM 77.9 °F - 68.9 °F 74% 29.85 in 10.0 mi Calm Calm - N/A   Clear
4:35 AM 77.0 °F - 68.0 °F 74% 29.85 in 10.0 mi Calm Calm - N/A   Clear
4:55 AM 75.6 °F - 68.9 °F 80% 29.85 in 10.0 mi Calm Calm - N/A   Clear
5:15 AM 75.0 °F - 68.5 °F 80% 29.85 in 10.0 mi Calm Calm - N/A   Clear
5:35 AM 75.2 °F - 68.4 °F 79% 29.86 in 10.0 mi Calm Calm - N/A   Clear
5:55 AM 74.5 °F - 68.2 °F 81% 29.85 in 10.0 mi East 3.5 mph - N/A   Clear
6:15 AM 73.9 °F - 68.4 °F 83% 29.86 in 10.0 mi Calm Calm - N/A   Clear
6:35 AM 74.3 °F - 68.4 °F 82% 29.86 in 7.0 mi Calm Calm - N/A   Clear
6:55 AM 72.9 °F - 67.6 °F 84% 29.86 in 10.0 mi Calm Calm - N/A   Clear
7:15 AM 74.7 °F - 68.9 °F 82% 29.87 in 7.0 mi Calm Calm - N/A   Clear
7:35 AM 77.4 °F - 69.8 °F 77% 29.88 in 7.0 mi Calm Calm - N/A   Clear
7:55 AM 79.7 °F - 70.3 °F 73% 29.88 in 7.0 mi Calm Calm - N/A   Clear
8:15 AM 81.1 °F 85.0 °F 70.9 °F 71% 29.90 in 7.0 mi Calm Calm - N/A   Clear
8:35 AM 83.3 °F 87.9 °F 71.1 °F 66% 29.90 in 7.0 mi Calm Calm - N/A   Clear
8:55 AM 86.0 °F 91.1 °F 70.5 °F 60% 29.91 in 10.0 mi Calm Calm - N/A   Clear
9:15 AM 86.9 °F 91.0 °F 69.1 °F 55% 29.92 in 10.0 mi Calm Calm - N/A   Clear
9:35 AM 89.2 °F 92.4 °F 66.9 °F 48% 29.92 in 10.0 mi Calm Calm - N/A   Clear
9:55 AM 88.7 °F 89.1 °F 62.1 °F 41% 29.92 in 10.0 mi NNE 4.6 mph - N/A   Clear
10:15 AM 88.7 °F 88.8 °F 61.2 °F 40% 29.92 in 7.0 mi Calm Calm - N/A   Clear
10:35 AM 89.1 °F 89.0 °F 61.3 °F 39% 29.92 in 10.0 mi NE 3.5 mph - N/A   Clear
10:55 AM 90.0 °F 90.6 °F 62.6 °F 40% 29.92 in 10.0 mi Calm Calm - N/A   Clear
11:15 AM 90.1 °F 90.6 °F 62.2 °F 39% 29.92 in 10.0 mi NNE 3.5 mph - N/A   Clear
11:35 AM 90.3 °F 90.5 °F 61.5 °F 38% 29.92 in 10.0 mi NNW 3.5 mph - N/A   Clear
11:55 AM 90.0 °F 90.0 °F 61.3 °F 38% 29.92 in 10.0 mi NE 3.5 mph - N/A   Clear
12:15 PM 90.5 °F 90.7 °F 61.5 °F 38% 29.92 in 10.0 mi ENE 4.6 mph - N/A   Clear
12:35 PM 92.3 °F 92.3 °F 61.3 °F 35% 29.92 in 10.0 mi ENE 8.1 mph - N/A   Clear
12:55 PM 93.0 °F 93.4 °F 61.3 °F 35% 29.91 in 10.0 mi NE 8.1 mph - N/A   Clear
1:15 PM 93.2 °F 93.3 °F 60.8 °F 34% 29.91 in 10.0 mi NE 8.1 mph - N/A   Clear
1:35 PM 93.9 °F 94.4 °F 61.3 °F 34% 29.91 in 10.0 mi NE 5.8 mph - N/A   Clear
1:55 PM 93.6 °F 93.8 °F 61.0 °F 34% 29.90 in 10.0 mi NNE 8.1 mph - N/A   Clear
2:15 PM 93.9 °F 94.0 °F 60.8 °F 33% 29.89 in 10.0 mi NNE 5.8 mph - N/A   Clear
2:35 PM 97.3 °F 96.6 °F 58.3 °F 27% 29.89 in 10.0 mi East 6.9 mph - N/A   Clear
2:55 PM 98.1 °F 97.2 °F 57.9 °F 26% 29.88 in 10.0 mi NE 8.1 mph - N/A   Clear
3:15 PM 98.8 °F 98.3 °F 58.3 °F 26% 29.87 in 10.0 mi North 6.9 mph - N/A   Clear
3:35 PM 98.2 °F 98.4 °F 59.7 °F 28% 29.86 in 10.0 mi NNE 11.5 mph - N/A   Clear
3:55 PM 98.8 °F 98.7 °F 59.7 °F 27% 29.86 in 10.0 mi East 6.9 mph - N/A   Clear
4:15 PM 99.1 °F 98.8 °F 59.0 °F 26% 29.85 in 10.0 mi NNW 5.8 mph - N/A   Clear
4:35 PM 98.8 °F 98.7 °F 59.0 °F 27% 29.85 in 10.0 mi Calm Calm - N/A   Clear
4:55 PM 98.4 °F 98.2 °F 58.8 °F 27% 29.84 in 10.0 mi NNE 5.8 mph - N/A   Clear
5:15 PM 98.8 °F 98.7 °F 59.4 °F 27% 29.84 in 10.0 mi ENE 6.9 mph - N/A   Clear
5:35 PM 99.3 °F 99.1 °F 59.2 °F 26% 29.84 in 10.0 mi NE 10.4 mph - N/A   Scattered Clouds
5:55 PM 91.6 °F 92.7 °F 63.5 °F 39% 29.85 in 7.0 mi East 19.6 mph 28.8 mph N/A   Mostly Cloudy
6:35 PM 77.4 °F - 71.2 °F 81% 29.88 in 0.5 mi SE 5.8 mph - N/A Rain Heavy Rain
6:55 PM 79.2 °F - 72.1 °F 79% 29.88 in 7.0 mi West 3.5 mph - N/A Rain , Thunderstorm Rain
7:15 PM 80.4 °F 84.7 °F 72.7 °F 77% 29.88 in 10.0 mi Calm Calm - N/A Rain Light Rain
7:35 PM 80.8 °F 86.1 °F 74.3 °F 81% 29.88 in 10.0 mi ENE 4.6 mph - N/A   Scattered Clouds
7:55 PM 81.5 °F 85.9 °F 71.6 °F 72% 29.88 in 10.0 mi East 5.8 mph - N/A   Scattered Clouds
8:15 PM 81.5 °F 86.1 °F 72.1 °F 73% 29.89 in 10.0 mi East 6.9 mph - N/A   Clear
8:35 PM 81.7 °F 86.7 °F 72.5 °F 74% 29.89 in 10.0 mi East 6.9 mph - N/A   Clear
8:55 PM 81.5 °F 85.7 °F 71.2 °F 71% 29.89 in 10.0 mi East 6.9 mph - N/A   Clear
9:15 PM 81.7 °F 85.6 °F 70.7 °F 69% 29.90 in 10.0 mi ESE 4.6 mph - N/A   Clear
9:35 PM 81.1 °F 85.4 °F 71.8 °F 73% 29.91 in 10.0 mi SE 4.6 mph - N/A   Mostly Cloudy
9:55 PM 81.5 °F 85.9 °F 71.6 °F 72% 29.91 in 10.0 mi SE 4.6 mph - N/A   Scattered Clouds
10:15 PM 81.5 °F 85.9 °F 71.6 °F 72% 29.91 in 10.0 mi SE 5.8 mph - N/A   Clear
10:35 PM 81.0 °F 84.9 °F 71.1 °F 72% 29.91 in 10.0 mi SE 3.5 mph - N/A   Clear
10:55 PM 80.6 °F 84.4 °F 71.2 °F 73% 29.92 in 10.0 mi SE 3.5 mph - N/A   Clear
11:15 PM 80.1 °F 83.6 °F 71.2 °F 74% 29.93 in 10.0 mi South 4.6 mph - N/A   Clear
11:35 PM 79.7 °F - 70.9 °F 74% 29.93 in 10.0 mi South 4.6 mph - N/A   Clear
11:55 PM 79.2 °F - 70.5 °F 75% 29.94 in 10.0 mi South 4.6 mph - N/A   Clear